Year,Month,Day,Hour,Minute,Value (Times are PST for temperature in C)
2012,09,18,00,00,14.20
2012,09,18,00,01,14.20
2012,09,18,00,02,14.20
2012,09,18,00,03,14.20
2012,09,18,00,04,14.20
2012,09,18,00,05,14.20
2012,09,18,00,06,14.20
2012,09,18,00,07,14.20
2012,09,18,00,08,14.20
2012,09,18,00,09,14.20
2012,09,18,00,10,14.20
2012,09,18,00,11,14.20
2012,09,18,00,12,14.20
2012,09,18,00,13,14.20
2012,09,18,00,14,14.20
2012,09,18,00,15,14.20
2012,09,18,00,16,14.20
2012,09,18,00,17,14.20
2012,09,18,00,18,14.20
2012,09,18,00,19,14.20
2012,09,18,00,20,14.20
2012,09,18,00,21,14.20
2012,09,18,00,22,14.20
2012,09,18,00,23,14.10
2012,09,18,00,24,14.10
2012,09,18,00,25,14.20
2012,09,18,00,26,14.20
2012,09,18,00,27,14.20
2012,09,18,00,28,14.30
2012,09,18,00,29,14.40
2012,09,18,00,30,14.40
2012,09,18,00,31,14.40
2012,09,18,00,32,14.30
2012,09,18,00,33,14.30
2012,09,18,00,34,14.30
2012,09,18,00,35,14.30
2012,09,18,00,36,14.20
2012,09,18,00,37,14.10
2012,09,18,00,38,14.00
2012,09,18,00,39,13.80
2012,09,18,00,40,13.70
2012,09,18,00,41,13.60
2012,09,18,00,42,13.50
2012,09,18,00,43,13.40
2012,09,18,00,44,13.30
2012,09,18,00,45,13.30
2012,09,18,00,46,13.20
2012,09,18,00,47,13.10
2012,09,18,00,48,13.10
2012,09,18,00,49,13.00
2012,09,18,00,50,13.00
2012,09,18,00,51,13.00
2012,09,18,00,52,13.00
2012,09,18,00,53,12.90
2012,09,18,00,54,12.90
2012,09,18,00,55,12.90
2012,09,18,00,56,12.90
2012,09,18,00,57,12.80
2012,09,18,00,58,12.80
2012,09,18,00,59,12.80
2012,09,18,01,00,12.80
2012,09,18,01,01,12.80
2012,09,18,01,02,12.80
2012,09,18,01,03,12.80
2012,09,18,01,04,12.90
2012,09,18,01,05,12.90
2012,09,18,01,06,12.90
2012,09,18,01,07,12.90
2012,09,18,01,08,12.90
2012,09,18,01,09,13.00
2012,09,18,01,10,13.00
2012,09,18,01,11,13.00
2012,09,18,01,12,13.10
2012,09,18,01,13,13.10
2012,09,18,01,14,13.00
2012,09,18,01,15,13.00
2012,09,18,01,16,13.00
2012,09,18,01,17,13.00
2012,09,18,01,18,13.10
2012,09,18,01,19,13.10
2012,09,18,01,20,13.10
2012,09,18,01,21,13.10
2012,09,18,01,22,13.10
2012,09,18,01,23,13.10
2012,09,18,01,24,13.10
2012,09,18,01,25,13.10
2012,09,18,01,26,13.10
2012,09,18,01,27,13.10
2012,09,18,01,28,13.00
2012,09,18,01,29,13.00
2012,09,18,01,30,13.00
2012,09,18,01,31,12.90
2012,09,18,01,32,12.90
2012,09,18,01,33,12.90
2012,09,18,01,34,12.90
2012,09,18,01,35,12.90
2012,09,18,01,36,12.80
2012,09,18,01,37,12.80
2012,09,18,01,38,12.80
2012,09,18,01,39,12.80
2012,09,18,01,40,12.80
2012,09,18,01,41,12.80
2012,09,18,01,42,12.80
2012,09,18,01,43,12.80
2012,09,18,01,44,12.80
2012,09,18,01,45,12.80
2012,09,18,01,46,12.80
2012,09,18,01,47,12.80
2012,09,18,01,48,12.80
2012,09,18,01,49,12.80
2012,09,18,01,50,12.80
2012,09,18,01,51,12.90
2012,09,18,01,52,12.90
2012,09,18,01,53,12.90
2012,09,18,01,54,13.00
2012,09,18,01,55,13.00
2012,09,18,01,56,13.10
2012,09,18,01,57,13.10
2012,09,18,01,58,13.10
2012,09,18,01,59,13.10
2012,09,18,02,00,13.10
2012,09,18,02,01,13.10
2012,09,18,02,02,13.10
2012,09,18,02,03,13.10
2012,09,18,02,04,13.10
2012,09,18,02,05,13.10
2012,09,18,02,06,13.00
2012,09,18,02,07,13.00
2012,09,18,02,08,12.90
2012,09,18,02,09,12.90
2012,09,18,02,10,12.80
2012,09,18,02,11,12.80
2012,09,18,02,12,12.80
2012,09,18,02,13,12.70
2012,09,18,02,14,12.70
2012,09,18,02,15,12.60
2012,09,18,02,16,12.60
2012,09,18,02,17,12.60
2012,09,18,02,18,12.60
2012,09,18,02,19,12.50
2012,09,18,02,20,12.50
2012,09,18,02,21,12.50
2012,09,18,02,22,12.40
2012,09,18,02,23,12.40
2012,09,18,02,24,12.30
2012,09,18,02,25,12.30
2012,09,18,02,26,12.30
2012,09,18,02,27,12.30
2012,09,18,02,28,12.20
2012,09,18,02,29,12.20
2012,09,18,02,30,12.20
2012,09,18,02,31,12.10
2012,09,18,02,32,12.10
2012,09,18,02,33,12.00
2012,09,18,02,34,12.00
2012,09,18,02,35,12.00
2012,09,18,02,36,11.90
2012,09,18,02,37,11.90
2012,09,18,02,38,11.90
2012,09,18,02,39,11.90
2012,09,18,02,40,12.00
2012,09,18,02,41,12.00
2012,09,18,02,42,12.00
2012,09,18,02,43,12.00
2012,09,18,02,44,12.00
2012,09,18,02,45,11.90
2012,09,18,02,46,12.00
2012,09,18,02,47,12.00
2012,09,18,02,48,12.00
2012,09,18,02,49,12.00
2012,09,18,02,50,12.00
2012,09,18,02,51,12.10
2012,09,18,02,52,12.10
2012,09,18,02,53,12.10
2012,09,18,02,54,12.20
2012,09,18,02,55,12.20
2012,09,18,02,56,12.30
2012,09,18,02,57,12.30
2012,09,18,02,58,12.30
2012,09,18,02,59,12.30
2012,09,18,03,00,12.30
2012,09,18,03,01,12.40
2012,09,18,03,02,12.40
2012,09,18,03,03,12.50
2012,09,18,03,04,12.50
2012,09,18,03,05,12.50
2012,09,18,03,06,12.50
2012,09,18,03,07,12.50
2012,09,18,03,08,12.50
2012,09,18,03,09,12.60
2012,09,18,03,10,12.60
2012,09,18,03,11,12.60
2012,09,18,03,12,12.70
2012,09,18,03,13,12.70
2012,09,18,03,14,12.70
2012,09,18,03,15,12.70
2012,09,18,03,16,12.60
2012,09,18,03,17,12.60
2012,09,18,03,18,12.60
2012,09,18,03,19,12.60
2012,09,18,03,20,12.60
2012,09,18,03,21,12.50
2012,09,18,03,22,12.50
2012,09,18,03,23,12.50
2012,09,18,03,24,12.50
2012,09,18,03,25,12.50
2012,09,18,03,26,12.50
2012,09,18,03,27,12.50
2012,09,18,03,28,12.50
2012,09,18,03,29,12.50
2012,09,18,03,30,12.50
2012,09,18,03,31,12.50
2012,09,18,03,32,12.50
2012,09,18,03,33,12.50
2012,09,18,03,34,12.50
2012,09,18,03,35,12.50
2012,09,18,03,36,12.50
2012,09,18,03,37,12.50
2012,09,18,03,38,12.50
2012,09,18,03,39,12.50
2012,09,18,03,40,12.50
2012,09,18,03,41,12.50
2012,09,18,03,42,12.40
2012,09,18,03,43,12.40
2012,09,18,03,44,12.50
2012,09,18,03,45,12.50
2012,09,18,03,46,12.50
2012,09,18,03,47,12.60
2012,09,18,03,48,12.60
2012,09,18,03,49,12.60
2012,09,18,03,50,12.70
2012,09,18,03,51,12.80
2012,09,18,03,52,12.80
2012,09,18,03,53,12.90
2012,09,18,03,54,13.00
2012,09,18,03,55,13.00
2012,09,18,03,56,13.10
2012,09,18,03,57,13.10
2012,09,18,03,58,13.10
2012,09,18,03,59,13.20
2012,09,18,04,00,13.20
2012,09,18,04,01,13.20
2012,09,18,04,02,13.30
2012,09,18,04,03,13.30
2012,09,18,04,04,13.30
2012,09,18,04,05,13.30
2012,09,18,04,06,13.30
2012,09,18,04,07,13.30
2012,09,18,04,08,13.20
2012,09,18,04,09,13.10
2012,09,18,04,10,13.10
2012,09,18,04,11,13.00
2012,09,18,04,12,12.90
2012,09,18,04,13,12.80
2012,09,18,04,14,12.80
2012,09,18,04,15,12.80
2012,09,18,04,16,12.70
2012,09,18,04,17,12.70
2012,09,18,04,18,12.70
2012,09,18,04,19,12.70
2012,09,18,04,20,12.60
2012,09,18,04,21,12.60
2012,09,18,04,22,12.60
2012,09,18,04,23,12.60
2012,09,18,04,24,12.50
2012,09,18,04,25,12.50
2012,09,18,04,26,12.50
2012,09,18,04,27,12.40
2012,09,18,04,28,12.40
2012,09,18,04,29,12.40
2012,09,18,04,30,12.40
2012,09,18,04,31,12.40
2012,09,18,04,32,12.30
2012,09,18,04,33,12.30
2012,09,18,04,34,12.30
2012,09,18,04,35,12.30
2012,09,18,04,36,12.30
2012,09,18,04,37,12.30
2012,09,18,04,38,12.30
2012,09,18,04,39,12.30
2012,09,18,04,40,12.30
2012,09,18,04,41,12.30
2012,09,18,04,42,12.20
2012,09,18,04,43,12.20
2012,09,18,04,44,12.20
2012,09,18,04,45,12.10
2012,09,18,04,46,12.10
2012,09,18,04,47,12.00
2012,09,18,04,48,12.00
2012,09,18,04,49,12.00
2012,09,18,04,50,12.00
2012,09,18,04,51,12.00
2012,09,18,04,52,11.90
2012,09,18,04,53,11.90
2012,09,18,04,54,11.90
2012,09,18,04,55,11.90
2012,09,18,04,56,11.90
2012,09,18,04,57,11.80
2012,09,18,04,58,11.80
2012,09,18,04,59,11.80
2012,09,18,05,00,11.80
2012,09,18,05,01,11.80
2012,09,18,05,02,11.80
2012,09,18,05,03,11.80
2012,09,18,05,04,11.80
2012,09,18,05,05,11.80
2012,09,18,05,06,11.90
2012,09,18,05,07,11.90
2012,09,18,05,08,11.90
2012,09,18,05,09,12.00
2012,09,18,05,10,12.00
2012,09,18,05,11,12.00
2012,09,18,05,12,12.00
2012,09,18,05,13,12.00
2012,09,18,05,14,12.00
2012,09,18,05,15,11.90
2012,09,18,05,16,11.90
2012,09,18,05,17,11.90
2012,09,18,05,18,11.80
2012,09,18,05,19,11.80
2012,09,18,05,20,11.80
2012,09,18,05,21,11.70
2012,09,18,05,22,11.70
2012,09,18,05,23,11.70
2012,09,18,05,24,11.60
2012,09,18,05,25,11.60
2012,09,18,05,26,11.60
2012,09,18,05,27,11.60
2012,09,18,05,28,11.60
2012,09,18,05,29,11.60
2012,09,18,05,30,11.60
2012,09,18,05,31,11.60
2012,09,18,05,32,11.60
2012,09,18,05,33,11.60
2012,09,18,05,34,11.70
2012,09,18,05,35,11.70
2012,09,18,05,36,11.70
2012,09,18,05,37,11.80
2012,09,18,05,38,11.80
2012,09,18,05,39,11.80
2012,09,18,05,40,11.80
2012,09,18,05,41,11.80
2012,09,18,05,42,11.80
2012,09,18,05,43,11.80
2012,09,18,05,44,11.80
2012,09,18,05,45,11.80
2012,09,18,05,46,11.80
2012,09,18,05,47,11.80
2012,09,18,05,48,11.70
2012,09,18,05,49,11.70
2012,09,18,05,50,11.70
2012,09,18,05,51,11.60
2012,09,18,05,52,11.60
2012,09,18,05,53,11.60
2012,09,18,05,54,11.60
2012,09,18,05,55,11.60
2012,09,18,05,56,11.60
2012,09,18,05,57,11.60
2012,09,18,05,58,11.60
2012,09,18,05,59,11.70
2012,09,18,06,00,11.70
2012,09,18,06,01,11.70
2012,09,18,06,02,11.70
2012,09,18,06,03,11.70
2012,09,18,06,04,11.70
2012,09,18,06,05,11.70
2012,09,18,06,06,11.60
2012,09,18,06,07,11.60
2012,09,18,06,08,11.60
2012,09,18,06,09,11.60
2012,09,18,06,10,11.60
2012,09,18,06,11,11.60
2012,09,18,06,12,11.60
2012,09,18,06,13,11.60
2012,09,18,06,14,11.60
2012,09,18,06,15,11.60
2012,09,18,06,16,11.60
2012,09,18,06,17,11.70
2012,09,18,06,18,11.70
2012,09,18,06,19,11.70
2012,09,18,06,20,11.70
2012,09,18,06,21,11.70
2012,09,18,06,22,11.70
2012,09,18,06,23,11.80
2012,09,18,06,24,11.80
2012,09,18,06,25,11.80
2012,09,18,06,26,11.80
2012,09,18,06,27,11.80
2012,09,18,06,28,11.80
2012,09,18,06,29,11.80
2012,09,18,06,30,11.70
2012,09,18,06,31,11.70
2012,09,18,06,32,11.70
2012,09,18,06,33,11.70
2012,09,18,06,34,11.60
2012,09,18,06,35,11.60
2012,09,18,06,36,11.60
2012,09,18,06,37,11.60
2012,09,18,06,38,11.60
2012,09,18,06,39,11.60
2012,09,18,06,40,11.60
2012,09,18,06,41,11.60
2012,09,18,06,42,11.60
2012,09,18,06,43,11.60
2012,09,18,06,44,11.60
2012,09,18,06,45,11.60
2012,09,18,06,46,11.60
2012,09,18,06,47,11.60
2012,09,18,06,48,11.60
2012,09,18,06,49,11.60
2012,09,18,06,50,11.60
2012,09,18,06,51,11.60
2012,09,18,06,52,11.60
2012,09,18,06,53,11.50
2012,09,18,06,54,11.40
2012,09,18,06,55,11.40
2012,09,18,06,56,11.40
2012,09,18,06,57,11.40
2012,09,18,06,58,11.40
2012,09,18,06,59,11.40
2012,09,18,07,00,11.40
2012,09,18,07,01,11.40
2012,09,18,07,02,11.40
2012,09,18,07,03,11.40
2012,09,18,07,04,11.40
2012,09,18,07,05,11.40
2012,09,18,07,06,11.40
2012,09,18,07,07,11.40
2012,09,18,07,08,11.40
2012,09,18,07,09,11.40
2012,09,18,07,10,11.40
2012,09,18,07,11,11.40
2012,09,18,07,12,11.50
2012,09,18,07,13,11.60
2012,09,18,07,14,11.60
2012,09,18,07,15,11.60
2012,09,18,07,16,11.60
2012,09,18,07,17,11.60
2012,09,18,07,18,11.60
2012,09,18,07,19,11.70
2012,09,18,07,20,11.70
2012,09,18,07,21,11.80
2012,09,18,07,22,11.80
2012,09,18,07,23,11.80
2012,09,18,07,24,11.90
2012,09,18,07,25,11.90
2012,09,18,07,26,11.90
2012,09,18,07,27,11.90
2012,09,18,07,28,12.00
2012,09,18,07,29,12.00
2012,09,18,07,30,12.00
2012,09,18,07,31,12.10
2012,09,18,07,32,12.10
2012,09,18,07,33,12.10
2012,09,18,07,34,12.20
2012,09,18,07,35,12.20
2012,09,18,07,36,12.30
2012,09,18,07,37,12.30
2012,09,18,07,38,12.30
2012,09,18,07,39,12.40
2012,09,18,07,40,12.40
2012,09,18,07,41,12.50
2012,09,18,07,42,12.50
2012,09,18,07,43,12.60
2012,09,18,07,44,12.70
2012,09,18,07,45,12.70
2012,09,18,07,46,12.80
2012,09,18,07,47,12.80
2012,09,18,07,48,12.90
2012,09,18,07,49,13.00
2012,09,18,07,50,13.00
2012,09,18,07,51,13.10
2012,09,18,07,52,13.20
2012,09,18,07,53,13.20
2012,09,18,07,54,13.30
2012,09,18,07,55,13.40
2012,09,18,07,56,13.50
2012,09,18,07,57,13.50
2012,09,18,07,58,13.60
2012,09,18,07,59,13.70
2012,09,18,08,00,13.70
2012,09,18,08,01,13.80
2012,09,18,08,02,13.90
2012,09,18,08,03,14.00
2012,09,18,08,04,14.20
2012,09,18,08,05,14.30
2012,09,18,08,06,14.40
2012,09,18,08,07,14.50
2012,09,18,08,08,14.60
2012,09,18,08,09,14.70
2012,09,18,08,10,14.80
2012,09,18,08,11,14.80
2012,09,18,08,12,14.90
2012,09,18,08,13,15.00
2012,09,18,08,14,15.10
2012,09,18,08,15,15.20
2012,09,18,08,16,15.30
2012,09,18,08,17,15.40
2012,09,18,08,18,15.50
2012,09,18,08,19,15.60
2012,09,18,08,20,15.70
2012,09,18,08,21,15.80
2012,09,18,08,22,15.80
2012,09,18,08,23,15.90
2012,09,18,08,24,15.90
2012,09,18,08,25,16.00
2012,09,18,08,26,16.10
2012,09,18,08,27,16.10
2012,09,18,08,28,16.10
2012,09,18,08,29,16.10
2012,09,18,08,30,16.10
2012,09,18,08,31,16.20
2012,09,18,08,32,16.20
2012,09,18,08,33,16.20
2012,09,18,08,34,16.30
2012,09,18,08,35,16.30
2012,09,18,08,36,16.30
2012,09,18,08,37,16.30
2012,09,18,08,38,16.30
2012,09,18,08,39,16.40
2012,09,18,08,40,16.40
2012,09,18,08,41,16.40
2012,09,18,08,42,16.40
2012,09,18,08,43,16.40
2012,09,18,08,44,16.40
2012,09,18,08,45,16.40
2012,09,18,08,46,16.40
2012,09,18,08,47,16.40
2012,09,18,08,48,16.40
2012,09,18,08,49,16.40
2012,09,18,08,50,16.40
2012,09,18,08,51,16.50
2012,09,18,08,52,16.60
2012,09,18,08,53,16.60
2012,09,18,08,54,16.70
2012,09,18,08,55,16.70
2012,09,18,08,56,16.70
2012,09,18,08,57,16.80
2012,09,18,08,58,16.90
2012,09,18,08,59,16.90
2012,09,18,09,00,17.00
2012,09,18,09,01,17.10
2012,09,18,09,02,17.10
2012,09,18,09,03,17.30
2012,09,18,09,04,17.30
2012,09,18,09,05,17.30
2012,09,18,09,06,17.40
2012,09,18,09,07,17.40
2012,09,18,09,08,17.50
2012,09,18,09,09,17.50
2012,09,18,09,10,17.60
2012,09,18,09,11,17.60
2012,09,18,09,12,17.70
2012,09,18,09,13,17.70
2012,09,18,09,14,17.70
2012,09,18,09,15,17.70
2012,09,18,09,16,17.80
2012,09,18,09,17,17.80
2012,09,18,09,18,17.90
2012,09,18,09,19,17.90
2012,09,18,09,20,17.90
2012,09,18,09,21,17.90
2012,09,18,09,22,17.90
2012,09,18,09,23,17.90
2012,09,18,09,24,18.00
2012,09,18,09,25,18.10
2012,09,18,09,26,18.10
2012,09,18,09,27,18.20
2012,09,18,09,28,18.20
2012,09,18,09,29,18.20
2012,09,18,09,30,18.30
2012,09,18,09,31,18.40
2012,09,18,09,32,18.40
2012,09,18,09,33,18.40
2012,09,18,09,34,18.50
2012,09,18,09,35,18.50
2012,09,18,09,36,18.50
2012,09,18,09,37,18.60
2012,09,18,09,38,18.60
2012,09,18,09,39,18.70
2012,09,18,09,40,18.70
2012,09,18,09,41,18.70
2012,09,18,09,42,18.80
2012,09,18,09,43,18.90
2012,09,18,09,44,18.90
2012,09,18,09,45,18.90
2012,09,18,09,46,19.00
2012,09,18,09,47,19.10
2012,09,18,09,48,19.10
2012,09,18,09,49,19.10
2012,09,18,09,50,19.20
2012,09,18,09,51,19.20
2012,09,18,09,52,19.30
2012,09,18,09,53,19.30
2012,09,18,09,54,19.40
2012,09,18,09,55,19.40
2012,09,18,09,56,19.50
2012,09,18,09,57,19.60
2012,09,18,09,58,19.60
2012,09,18,09,59,19.70
2012,09,18,10,00,19.70
2012,09,18,10,01,19.70
2012,09,18,10,02,19.80
2012,09,18,10,03,19.80
2012,09,18,10,04,19.90
2012,09,18,10,05,19.90
2012,09,18,10,06,19.90
2012,09,18,10,07,20.00
2012,09,18,10,08,20.10
2012,09,18,10,09,20.10
2012,09,18,10,10,20.10
2012,09,18,10,11,20.20
2012,09,18,10,12,20.20
2012,09,18,10,13,20.20
2012,09,18,10,14,20.20
2012,09,18,10,15,20.20
2012,09,18,10,16,20.20
2012,09,18,10,17,20.20
2012,09,18,10,18,20.20
2012,09,18,10,19,20.20
2012,09,18,10,20,20.20
2012,09,18,10,21,20.20
2012,09,18,10,22,20.20
2012,09,18,10,23,20.20
2012,09,18,10,24,20.20
2012,09,18,10,25,20.30
2012,09,18,10,26,20.30
2012,09,18,10,27,20.30
2012,09,18,10,28,20.40
2012,09,18,10,29,20.40
2012,09,18,10,30,20.40
2012,09,18,10,31,20.40
2012,09,18,10,32,20.50
2012,09,18,10,33,20.50
2012,09,18,10,34,20.50
2012,09,18,10,35,20.60
2012,09,18,10,36,20.60
2012,09,18,10,37,20.60
2012,09,18,10,38,20.70
2012,09,18,10,39,20.70
2012,09,18,10,40,20.70
2012,09,18,10,41,20.70
2012,09,18,10,42,20.70
2012,09,18,10,43,20.70
2012,09,18,10,44,20.80
2012,09,18,10,45,20.80
2012,09,18,10,46,20.80
2012,09,18,10,47,20.90
2012,09,18,10,48,20.90
2012,09,18,10,49,21.00
2012,09,18,10,50,21.00
2012,09,18,10,51,21.10
2012,09,18,10,52,21.10
2012,09,18,10,53,21.20
2012,09,18,10,54,21.30
2012,09,18,10,55,21.30
2012,09,18,10,56,21.30
2012,09,18,10,57,21.30
2012,09,18,10,58,21.40
2012,09,18,10,59,21.40
2012,09,18,11,00,21.40
2012,09,18,11,01,21.60
2012,09,18,11,02,21.60
2012,09,18,11,03,21.60
2012,09,18,11,04,21.70
2012,09,18,11,05,21.60
2012,09,18,11,06,21.40
2012,09,18,11,07,21.20
2012,09,18,11,08,21.00
2012,09,18,11,09,20.90
2012,09,18,11,10,20.70
2012,09,18,11,11,20.60
2012,09,18,11,12,20.50
2012,09,18,11,13,20.40
2012,09,18,11,14,20.40
2012,09,18,11,15,20.50
2012,09,18,11,16,20.50
2012,09,18,11,17,20.70
2012,09,18,11,18,20.70
2012,09,18,11,19,20.80
2012,09,18,11,20,20.90
2012,09,18,11,21,21.00
2012,09,18,11,22,21.10
2012,09,18,11,23,21.10
2012,09,18,11,24,21.20
2012,09,18,11,25,21.30
2012,09,18,11,26,21.30
2012,09,18,11,27,21.40
2012,09,18,11,28,21.40
2012,09,18,11,29,21.40
2012,09,18,11,30,21.40
2012,09,18,11,31,21.40
2012,09,18,11,32,21.40
2012,09,18,11,33,21.40
2012,09,18,11,34,21.50
2012,09,18,11,35,21.60
2012,09,18,11,36,21.60
2012,09,18,11,37,21.60
2012,09,18,11,38,21.60
2012,09,18,11,39,21.60
2012,09,18,11,40,21.60
2012,09,18,11,41,21.60
2012,09,18,11,42,21.50
2012,09,18,11,43,21.40
2012,09,18,11,44,21.40
2012,09,18,11,45,21.40
2012,09,18,11,46,21.40
2012,09,18,11,47,21.30
2012,09,18,11,48,21.40
2012,09,18,11,49,21.50
2012,09,18,11,50,21.60
2012,09,18,11,51,21.60
2012,09,18,11,52,21.60
2012,09,18,11,53,21.60
2012,09,18,11,54,21.40
2012,09,18,11,55,21.10
2012,09,18,11,56,20.70
2012,09,18,11,57,20.20
2012,09,18,11,58,19.70
2012,09,18,11,59,19.40
2012,09,18,12,00,19.20
2012,09,18,12,01,19.00
2012,09,18,12,02,18.80
2012,09,18,12,03,18.60
2012,09,18,12,04,18.50
2012,09,18,12,05,18.40
2012,09,18,12,06,18.40
2012,09,18,12,07,18.40
2012,09,18,12,08,18.20
2012,09,18,12,09,18.10
2012,09,18,12,10,18.10
2012,09,18,12,11,18.10
2012,09,18,12,12,18.10
2012,09,18,12,13,18.20
2012,09,18,12,14,18.40
2012,09,18,12,15,18.50
2012,09,18,12,16,18.50
2012,09,18,12,17,18.50
2012,09,18,12,18,18.60
2012,09,18,12,19,18.60
2012,09,18,12,20,18.60
2012,09,18,12,21,18.50
2012,09,18,12,22,18.50
2012,09,18,12,23,18.60
2012,09,18,12,24,18.60
2012,09,18,12,25,18.70
2012,09,18,12,26,18.80
2012,09,18,12,27,18.80
2012,09,18,12,28,18.90
2012,09,18,12,29,19.00
2012,09,18,12,30,19.10
2012,09,18,12,31,19.30
2012,09,18,12,32,19.60
2012,09,18,12,33,19.80
2012,09,18,12,34,19.90
2012,09,18,12,35,20.10
2012,09,18,12,36,20.20
2012,09,18,12,37,20.30
2012,09,18,12,38,20.30
2012,09,18,12,39,20.30
2012,09,18,12,40,20.40
2012,09,18,12,41,20.50
2012,09,18,12,42,20.50
2012,09,18,12,43,20.50
2012,09,18,12,44,20.50
2012,09,18,12,45,20.60
2012,09,18,12,46,20.70
2012,09,18,12,47,20.80
2012,09,18,12,48,20.90
2012,09,18,12,49,21.00
2012,09,18,12,50,21.00
2012,09,18,12,51,21.00
2012,09,18,12,52,20.90
2012,09,18,12,53,20.90
2012,09,18,12,54,20.90
2012,09,18,12,55,21.00
2012,09,18,12,56,21.00
2012,09,18,12,57,20.90
2012,09,18,12,58,20.60
2012,09,18,12,59,20.40
2012,09,18,13,00,20.20
2012,09,18,13,01,20.00
2012,09,18,13,02,19.90
2012,09,18,13,03,20.00
2012,09,18,13,04,20.10
2012,09,18,13,05,20.10
2012,09,18,13,06,20.30
2012,09,18,13,07,20.40
2012,09,18,13,08,20.50
2012,09,18,13,09,20.60
2012,09,18,13,10,20.60
2012,09,18,13,11,20.60
2012,09,18,13,12,20.70
2012,09,18,13,13,20.80
2012,09,18,13,14,20.80
2012,09,18,13,15,20.80
2012,09,18,13,16,20.80
2012,09,18,13,17,21.00
2012,09,18,13,18,21.00
2012,09,18,13,19,21.00
2012,09,18,13,20,21.10
2012,09,18,13,21,21.20
2012,09,18,13,22,21.30
2012,09,18,13,23,21.30
2012,09,18,13,24,21.10
2012,09,18,13,25,21.00
2012,09,18,13,26,20.90
2012,09,18,13,27,20.80
2012,09,18,13,28,20.70
2012,09,18,13,29,20.50
2012,09,18,13,30,20.40
2012,09,18,13,31,20.10
2012,09,18,13,32,20.00
2012,09,18,13,33,19.90
2012,09,18,13,34,19.90
2012,09,18,13,35,19.90
2012,09,18,13,36,19.90
2012,09,18,13,37,19.90
2012,09,18,13,38,19.80
2012,09,18,13,39,19.60
2012,09,18,13,40,19.50
2012,09,18,13,41,19.20
2012,09,18,13,42,19.00
2012,09,18,13,43,18.90
2012,09,18,13,44,18.80
2012,09,18,13,45,18.80
2012,09,18,13,46,18.60
2012,09,18,13,47,18.50
2012,09,18,13,48,18.50
2012,09,18,13,49,18.40
2012,09,18,13,50,18.30
2012,09,18,13,51,18.30
2012,09,18,13,52,18.20
2012,09,18,13,53,18.20
2012,09,18,13,54,18.20
2012,09,18,13,55,18.30
2012,09,18,13,56,18.30
2012,09,18,13,57,18.20
2012,09,18,13,58,18.20
2012,09,18,13,59,18.20
2012,09,18,14,00,18.10
2012,09,18,14,01,18.10
2012,09,18,14,02,18.00
2012,09,18,14,03,17.80
2012,09,18,14,04,17.70
2012,09,18,14,05,17.40
2012,09,18,14,06,17.30
2012,09,18,14,07,17.10
2012,09,18,14,08,17.00
2012,09,18,14,09,17.00
2012,09,18,14,10,17.00
2012,09,18,14,11,17.00
2012,09,18,14,12,17.00
2012,09,18,14,13,17.00
2012,09,18,14,14,17.00
2012,09,18,14,15,17.10
2012,09,18,14,16,17.30
2012,09,18,14,17,17.40
2012,09,18,14,18,17.50
2012,09,18,14,19,17.70
2012,09,18,14,20,17.90
2012,09,18,14,21,17.90
2012,09,18,14,22,18.00
2012,09,18,14,23,18.10
2012,09,18,14,24,18.20
2012,09,18,14,25,18.30
2012,09,18,14,26,18.40
2012,09,18,14,27,18.50
2012,09,18,14,28,18.60
2012,09,18,14,29,18.60
2012,09,18,14,30,18.70
2012,09,18,14,31,18.80
2012,09,18,14,32,18.90
2012,09,18,14,33,19.00
2012,09,18,14,34,19.10
2012,09,18,14,35,19.10
2012,09,18,14,36,19.20
2012,09,18,14,37,19.40
2012,09,18,14,38,19.30
2012,09,18,14,39,19.30
2012,09,18,14,40,19.30
2012,09,18,14,41,19.30
2012,09,18,14,42,19.30
2012,09,18,14,43,19.30
2012,09,18,14,44,19.30
2012,09,18,14,45,19.10
2012,09,18,14,46,19.10
2012,09,18,14,47,19.00
2012,09,18,14,48,18.90
2012,09,18,14,49,18.80
2012,09,18,14,50,18.90
2012,09,18,14,51,18.90
2012,09,18,14,52,19.10
2012,09,18,14,53,19.10
2012,09,18,14,54,19.10
2012,09,18,14,55,19.20
2012,09,18,14,56,19.20
2012,09,18,14,57,19.30
2012,09,18,14,58,19.20
2012,09,18,14,59,19.20
2012,09,18,15,00,19.40
2012,09,18,15,01,19.40
2012,09,18,15,02,19.50
2012,09,18,15,03,19.70
2012,09,18,15,04,19.90
2012,09,18,15,05,19.90
2012,09,18,15,06,19.90
2012,09,18,15,07,20.00
2012,09,18,15,08,20.20
2012,09,18,15,09,20.20
2012,09,18,15,10,20.20
2012,09,18,15,11,20.20
2012,09,18,15,12,20.40
2012,09,18,15,13,20.30
2012,09,18,15,14,20.40
2012,09,18,15,15,20.50
2012,09,18,15,16,20.60
2012,09,18,15,17,20.70
2012,09,18,15,18,20.70
2012,09,18,15,19,20.70
2012,09,18,15,20,20.50
2012,09,18,15,21,20.40
2012,09,18,15,22,20.40
2012,09,18,15,23,20.20
2012,09,18,15,24,20.20
2012,09,18,15,25,20.10
2012,09,18,15,26,20.00
2012,09,18,15,27,19.70
2012,09,18,15,28,19.60
2012,09,18,15,29,19.40
2012,09,18,15,30,19.30
2012,09,18,15,31,19.20
2012,09,18,15,32,19.10
2012,09,18,15,33,19.10
2012,09,18,15,34,19.10
2012,09,18,15,35,19.20
2012,09,18,15,36,19.20
2012,09,18,15,37,19.30
2012,09,18,15,38,19.30
2012,09,18,15,39,19.30
2012,09,18,15,40,19.40
2012,09,18,15,41,19.50
2012,09,18,15,42,19.50
2012,09,18,15,43,19.60
2012,09,18,15,44,19.70
2012,09,18,15,45,19.80
2012,09,18,15,46,19.90
2012,09,18,15,47,19.90
2012,09,18,15,48,20.10
2012,09,18,15,49,20.20
2012,09,18,15,50,20.20
2012,09,18,15,51,20.30
2012,09,18,15,52,20.30
2012,09,18,15,53,20.30
2012,09,18,15,54,20.30
2012,09,18,15,55,20.40
2012,09,18,15,56,20.50
2012,09,18,15,57,20.50
2012,09,18,15,58,20.60
2012,09,18,15,59,20.70
2012,09,18,16,00,20.80
2012,09,18,16,01,21.00
2012,09,18,16,02,21.10
2012,09,18,16,03,21.30
2012,09,18,16,04,21.30
2012,09,18,16,05,21.30
2012,09,18,16,06,21.30
2012,09,18,16,07,21.30
2012,09,18,16,08,21.30
2012,09,18,16,09,21.30
2012,09,18,16,10,21.30
2012,09,18,16,11,21.30
2012,09,18,16,12,21.30
2012,09,18,16,13,21.30
2012,09,18,16,14,21.30
2012,09,18,16,15,21.20
2012,09,18,16,16,21.10
2012,09,18,16,17,21.10
2012,09,18,16,18,21.10
2012,09,18,16,19,21.00
2012,09,18,16,20,20.90
2012,09,18,16,21,20.90
2012,09,18,16,22,20.90
2012,09,18,16,23,20.80
2012,09,18,16,24,20.80
2012,09,18,16,25,20.80
2012,09,18,16,26,20.80
2012,09,18,16,27,20.80
2012,09,18,16,28,20.90
2012,09,18,16,29,20.90
2012,09,18,16,30,20.90
2012,09,18,16,31,20.90
2012,09,18,16,32,21.00
2012,09,18,16,33,21.00
2012,09,18,16,34,21.10
2012,09,18,16,35,21.00
2012,09,18,16,36,20.80
2012,09,18,16,37,20.80
2012,09,18,16,38,20.80
2012,09,18,16,39,20.80
2012,09,18,16,40,20.80
2012,09,18,16,41,20.70
2012,09,18,16,42,20.70
2012,09,18,16,43,20.70
2012,09,18,16,44,20.80
2012,09,18,16,45,20.90
2012,09,18,16,46,21.00
2012,09,18,16,47,21.10
2012,09,18,16,48,21.10
2012,09,18,16,49,21.10
2012,09,18,16,50,21.10
2012,09,18,16,51,21.10
2012,09,18,16,52,21.10
2012,09,18,16,53,21.10
2012,09,18,16,54,21.10
2012,09,18,16,55,21.10
2012,09,18,16,56,21.10
2012,09,18,16,57,21.10
2012,09,18,16,58,21.10
2012,09,18,16,59,21.00
2012,09,18,17,00,20.80
2012,09,18,17,01,20.70
2012,09,18,17,02,20.40
2012,09,18,17,03,20.20
2012,09,18,17,04,20.10
2012,09,18,17,05,19.90
2012,09,18,17,06,19.80
2012,09,18,17,07,19.70
2012,09,18,17,08,19.60
2012,09,18,17,09,19.40
2012,09,18,17,10,19.20
2012,09,18,17,11,19.10
2012,09,18,17,12,18.90
2012,09,18,17,13,18.90
2012,09,18,17,14,18.90
2012,09,18,17,15,18.90
2012,09,18,17,16,18.80
2012,09,18,17,17,18.80
2012,09,18,17,18,18.80
2012,09,18,17,19,18.80